Tracking 28518 objects as of 1-Mar-2024
HD Live streaming from Space Station
objects crossing your sky now

FLOCK 4V 14

Track FLOCK 4V 14 now!
10-day predictions
FLOCK 4V 14 is classified as:


NORAD ID: 46286
Int'l Code: 2020-061Q
Perigee: 461.4 km
Apogee: 464.4 km
Inclination: 97.4 °
Period: 93.7 minutes
Semi major axis: 6833 km
RCS: Unknown
Launch date: September 3, 2020
Source: United States (US)
Launch site: FRENCH GUIANA (FRGUI)
Your satellite tracking list
Your tracking list is empty




NASA's NSSDC Master Catalog

Two Line Element Set (TLE):
1 46286U 20061Q   24060.94065789  .00019976  00000-0  55800-3 0  9998
2 46286  97.3680 133.9280 0002224 205.3855 154.7280 15.36739406193302
Source of the keplerian elements: AFSPC